Location: *
(32.8140°S, 174.6161°E)
Time: 02:22:42
(UTC+00:00)

Cosmos 2263 Rocket - Pass Details

Date: 10 December 2019
Orbit: 824 x 848 km, 71.0° (Epoch: 28 January)

Event Time Altitude Azimuth Distance (km) Brightness Sun altitude
Rises 14:40:14 0° 192° (SSW) 3,437 6.0 -24.3°
Reaches altitude 10° 14:42:54 10° 183° (S) 2,493 5.3 -23.9°
Maximum altitude 14:48:11 37° 116° (ESE) 1,293 3.6 -23.3°
Drops below altitude 10° 14:53:22 10° 49° (NE) 2,453 4.6 -22.6°
Sets 14:55:58 0° 41° (NE) 3,375 5.2 -22.2°
